Moosonee Airport
CYMO : now visible

Airfield :











YOU CAN JOIN US ON...

 
LOGIN :

Register | Disclaimer

   EN    FR    IT 

 









Legend :    VFR   Marginal VFR   IFR   Intensive IFR   Very Intensive IFR
Visi :
Ceiling :
>= 8 km
>= 3000ft
5 to 8 km
1000 to 3000 ft
1500m to 5 km
500 to 1000 ft
800 to 1500m
200 to 500 ft
< 800m
< 200 ft
Symbols :   Thunderstorms  Fog  Heavy snow  Heavy precipitations  Wind > 20 kt






- Airport Elevation : 30 ft
- IATA code : YMO


CYMO - Moosonee

CURRENT METAR :
  • 140900Z AUTO 35005KT 310V030 9SM OVC100 03/02 A3001 RMK SLP163

EXPIRED METARs :
  • 140800Z AUTO 35006KT 9SM OVC096 03/02 A3000 RMK SLP160
  • 140700Z AUTO 34006KT 9SM FEW091 03/02 A2999 RMK SLP159

TAF TAF CYMO
Valid from the 14 at 06:00 until the 14 at 18:00 UTC


140539Z 1406/1418 35006KT P6SM FEW010 BKN090
TEMPO 1406/1415 BKN010 BKN090
PROB30 1408/1413 2SM BR OVC004
FM141500 01012KT P6SM SCT010 BKN060 RMK FCST BASED ON AUTO OBS. NXT FCST BY 141200Z
CZYZ FIR / North America



MET'MAP, your aeronautical weather chart ! - Copyright ORBIFLY December 2007 - Disclaimer

ORBIFLY MET'MAP TEAM :

Programming & Development : Alexandra Zaïnal
Concept & original design : Baudouin d'Aumeries
Assistance for programming : Marc-Olivier Méhu
Technical & hardware support : Manuel Goepfert

Contact : metmap@orbifly.com




SOURCES & CREDITS :

   NOAA       Earth
Advisory